Regional Weather Roundup
Issued by NWS Jackson, KY

Home | Current Version | Previous Version | Text Only | Print | Product List | Glossary Off
Versions: 1 2 3 4 5 6 7 8 9 10 11 12 13 14 15 16 17 18 19 20 21 22 23 24 25 26 27 28 29 30 31 32 33 34 35 36 37 38 39 40 41 42 43 44 45 46 47 48 49 50

000
ASUS43 KJKL 241010
RWRJKL

EAST KENTUCKY HOURLY WEATHER ROUNDUP
NATIONAL WEATHER SERVICE JACKSON KY
600 AM EDT FRI OCT 24 2014

NOTE: "FAIR" INDICATES FEW OR NO CLOUDS BELOW 12,000 FEET WITH
NO SIGNIFICANT WEATHER AND/OR OBSTRUCTIONS TO VISIBILITY.

* THESE REPORTS ARE NOT UNDER NWS QUALITY CONTROL AND MAY NOT
  REPORT WEATHER SUCH AS PRECIPITATION AND FOG.

KYZ079-080-083-085-087-088-110-112-115-119-120-241100
...EASTERN KENTUCKY...

CITY           SKY/WX    TMP DP  RH WIND       PRES   REMARKS
JACKSON        MOCLDY    46  40  79 CALM      30.12S
LONDON         MOCLDY    43  39  86 CALM      30.12R
SOMERSET*      PTCLDY    41  41 100 CALM      30.13S
MONTICELLO*    CLOUDY    44  43  97 CALM      30.14R FOG
WILLIAMSBURG*  CLEAR     39  39 100 CALM      30.12
MIDDLESBORO*   CLOUDY    41  41  99 CALM      30.14R
HARLAN APT*    CLOUDY    41  41 100 NE5       30.13S
HAZARD APT*    SUNNY     41  41 100 CALM      30.12S FOG
BLACK MTN*       N/A     43  36  75 NW1         N/A
PIKEVILLE APT* FOG       39  39 100 SE3       30.11F VSB 0
BIG SANDY*     CLOUDY    42  41  97 CALM      30.12S
MOREHEAD APT*  CLOUDY    39  37  93 SE3       30.14S FOG
$$

KYZ035-036-041-042-044-050-067-078-099-241100
...CENTRAL KENTUCKY...

CITY           SKY/WX    TMP DP  RH WIND       PRES   REMARKS
MT STERLING*   PTCLDY    37  37 100 CALM      30.14R
FLEMING/MASON* CLEAR     39  39 100 CALM      30.14S FOG
DANVILLE*      PTCLDY    39  39 100 CALM      30.14R
RICHMOND*      PTCLDY    39  37  93 CALM      30.12R
LEXINGTON      PTCLDY    40  37  89 CALM      30.13R
FRANKFORT      MOCLDY    41  39  93 CALM      30.12R
$$

KYZ091>093-OHZ055-061-077-WVZ005-015-034-035-042-241100
...SOUTHERN OHIO/WEST VIRGINIA...

CITY           SKY/WX    TMP DP  RH WIND       PRES   REMARKS
COVINGTON      CLOUDY    43  40  89 S3        30.11F
COLUMBUS       CLOUDY    41  38  89 CALM      30.11S
DAYTON         CLOUDY    45  40  82 CALM      30.12R
WILMINGTON     MOCLDY    38  36  92 CALM      30.11S
HUNTINGTON     CLOUDY    40  39  97 CALM      30.12S
CHARLESTON     FOG       42  41  96 CALM      30.12R VSB 1/2
PINEVILLE*     FOG       41  41 100 MISG      30.18S VSB 1/2
BECKLEY        MOCLDY    36  35  96 CALM      30.10S FOG
BLUEFIELD      PTCLDY    40  36  86 W6        30.11S
$$

VAZ002-007-008-TNZ017-027-036-066-071-241100
...SOUTHWEST VIRGINIA/EAST TENNESSEE...

CITY           SKY/WX    TMP DP  RH WIND       PRES   REMARKS
WISE*          CLOUDY    41  41 100 CALM      30.12R
JONESVILLE*    CLOUDY    37  37 100 CALM      30.14F
ABINGDON*      MOCLDY    39  38  98 CALM      30.11R
BRISTOL        CLOUDY    40  38  93 CALM      30.12R FOG
KNOXVILLE      MOCLDY    45  42  89 NE7       30.09S
OAK RIDGE      CLOUDY    47  44  90 CALM      30.13R
CROSSVILLE     CLOUDY    45  41  86 CALM      30.11S
NASHVILLE      MOCLDY    50  45  83 NW5       30.12R
$$

...KEY TO REMARKS...
VSB - VISIBILITY IN MILES
WCI - WIND CHILL INDEX
HX  - HEAT INDEX

$$



USA.gov is the U.S. government's official web portal to all federal, state and local government web resources and services.